Regional Weather Roundup
Issued by NWS State College, PA

Home | Current Version | Previous Version | Graphics & Text | Print | Product List | Glossary On
Versions: 1 2 3 4 5 6 7 8 9 10 11 12 13 14 15 16 17 18 19 20 21 22 23 24 25 26 27 28 29 30 31 32 33 34 35 36 37 38 39 40 41 42 43 44 45 46 47 48 49 50
000
ASUS41 KCTP 252310
RWRCTP
NATIONAL WEATHER SERVICE STATE COLLEGE PA
700 PM EDT MON SEP 25 2017

Note: "fair" indicates few or no clouds below 12,000 feet with no
significant weather and/or obstructions to visibility.

* = STATION THAT DOES NOT REPORT PRECIPITATION /E.G. RAIN...SNOW...ETC/
    THUNDER OR FOG.

PAZ002>004-007>009-013>016-020>023-029>032-260000-
WESTERN PENNSYLVANIA

CITY           SKY/WX    TMP DP  RH WIND       PRES   REMARKS
ERIE           PTCLDY    80  67  64 NE5       30.01F
MEADVILLE      PTCLDY    82  64  54 CALM      30.05F
FRANKLIN*      PTCLDY    79  64  61 CALM      30.07S
NEW CASTLE     FAIR      81  65  58 E3        30.04S
BEAVER COUNTY  NOT AVBL
BUTLER*        CLEAR     77  67  71 CALM      30.04F
PITTSBURGH INT MOCLDY    84  62  47 SW3       30.03S
PITTSBURGH     CLEAR     83  61  47 S3        30.03S
INDIANA*       CLEAR     79  72  78 CALM      30.07S
LATROBE        CLEAR     82  66  57 CALM      30.05S
WASHINGTON CO* CLEAR     75  66  73 CALM      30.04F
$$

PAZ004>006-010>012-017>019-024>028-033>037-041-042-045-046-049>053-260000-
CENTRAL PENNSYLVANIA

CITY           SKY/WX    TMP DP  RH WIND       PRES   REMARKS
BRADFORD       CLEAR     76  64  66 CALM      30.10S
DUBOIS         CLEAR     81  63  54 CALM      30.07S
CLEARFIELD     MOCLDY    82  66  58 CALM      30.06S
JOHNSTOWN      CLEAR     78  64  61 CALM      30.10S
ALTOONA        PTCLDY    80  67  64 E3        30.07R
STATE COLLEGE  PTCLDY    82  64  54 CALM      30.05S
WILLIAMSPORT   CLEAR     80  73  79 CALM      29.99S
SELINSGROVE    MOCLDY    77  75  93 CALM      30.01R
FT INDIANTOWN  MOCLDY    78  71  79 CALM      30.01S
CAPITAL CITY   PTCLDY    84  68  58 S3        30.00S
HARRISBURG     MOCLDY    82  73  74 CALM      29.99S
YORK           CLOUDY    77  72  84 CALM      30.01R
$$

PAZ038>040-043-044-047-048-054-055-060>062-067>071-260000-
EASTERN PENNSYLVANIA

CITY           SKY/WX    TMP DP  RH WIND       PRES   REMARKS
SCRANTON       CLEAR     83  66  56 E3        30.04R
MOUNT POCONO   CLEAR     74  68  81 CALM      30.10S
ALLENTOWN      MOCLDY    87  68  52 SE5       30.01S
QUAKERTOWN*    CLEAR     81  72  74 CALM      30.03S
READING        PTCLDY    84  71  65 CALM      29.99S
LANCASTER      PTCLDY    83  71  67 E3        30.00F
COATESVILLE    CLOUDY    81  70  69 CALM      30.04S
POTTSTOWN      PTCLDY    81  69  67 CALM      30.03R
BLUE BELL      PTCLDY    79  68  69 E6        30.03R
DOYLESTOWN     CLEAR     81  67  62 CALM      30.02R
WILLOW GROVE   NOT AVBL
NORTH PHILA    CLEAR     83  67  58 SE14      30.03R
PHILADELPHIA   MOCLDY    81  67  62 SE9       30.01R
$$




USA.gov is the U.S. government's official web portal to all federal, state and local government web resources and services.